Weather History for KSLI - November, 2013

Change the Weather History Date:

Sunday, November 10, 2013

  Actual Average Record
Temperature  
Mean Temperature 64 °F -  
Max Temperature 81 °F 72 °F 86 °F (1996)
Min Temperature 46 °F 55 °F 41 °F (2012)
Degree Days  
Heating Degree Days 2    
Growing Degree Days 14 (Base 50)    
Moisture  
Dew Point 50 °F    
Average Humidity 88    
Maximum Humidity 100    
Minimum Humidity 11    
Precipitation  
Precipitation 0.00 in - - ()
Sea Level Pressure  
Sea Level Pressure 30.06 in    
Wind  
Wind Speed 3 mph (NNW)    
Max Wind Speed 13 mph    
Max Gust Speed -    
Visibility 5 miles    
Events Fog    
Averages and records for this station are not official NWS values.
T = Trace of Precipitation, MM = Missing Value Source: NWS Daily Summary

Daily Weather History Graph

Daily Weather History Graph

Search for Another Location

Airport or City:

Trip Planner

Search our weather history database for the weather conditions in past years. The results will help you decide how hot, cold, wet, or windy it might be!

Date:

Astronomy

Nov. 10, 2013 Rise Set
Actual Time 6:19 AM PST 4:52 PM PST
Civil Twilight 5:53 AM PST 5:18 PM PST
Nautical Twilight 5:23 AM PST 5:48 PM PST
Astronomical Twilight 4:54 AM PST 6:17 PM PST
Moon 12:42 PM PST (11/10) No Moon Set
Length of Visible Light 11h 24m
Length of Day
10h 32m
First Quarter, 56% of the Moon is Illuminated
Nov 10
First Quarter
Nov 17
Full
Nov 25
Last Quarter
Dec 2
New
Dec 9
First Quarter

Hourly Weather History & Observations

Time (PST) Temp. Windchill Dew Point Humidity Pressure Visibility Wind Dir Wind Speed Gust Speed Precip Events Conditions
12:03 AM 53.6 °F - 53.6 °F 100% 30.03 in 1.2 mi NE 3.5 mph - N/A   Clear
12:08 AM 53.6 °F - 53.6 °F 100% 30.03 in 1.8 mi NE 4.6 mph - N/A   Clear
12:13 AM 53.6 °F - 53.6 °F 100% 30.04 in 2.5 mi NE 2.3 mph - N/A   Clear
12:18 AM 53.6 °F - 53.6 °F 100% 30.04 in 3.0 mi Calm Calm - N/A   Clear
12:23 AM 53.6 °F - 53.6 °F 100% 30.04 in 2.5 mi Calm Calm - N/A   Clear
12:28 AM 51.8 °F - 51.8 °F 100% 30.04 in 0.5 mi Calm Calm - N/A Fog Fog
12:33 AM 51.8 °F - 51.8 °F 100% 30.03 in 0.2 mi NNE 2.3 mph - N/A Fog Fog
12:48 AM 51.8 °F - 51.8 °F 100% 30.04 in 0.5 mi West 1.2 mph - N/A Fog Fog
12:58 AM 51.8 °F - 51.8 °F 100% 30.05 in 0.5 mi SW 3.5 mph - N/A Fog Fog
1:03 AM 50.0 °F - 50.0 °F 100% 30.04 in 1.8 mi SW 4.6 mph - N/A   Clear
1:08 AM 50.0 °F - 50.0 °F 100% 30.04 in 4.0 mi WSW 3.5 mph - N/A   Clear
1:13 AM 50.0 °F - 50.0 °F 100% 30.04 in 1.8 mi West 2.3 mph - N/A   Clear
1:18 AM 50.0 °F - 50.0 °F 100% 30.04 in 1.5 mi Calm Calm - N/A   Clear
1:23 AM 50.0 °F - 50.0 °F 100% 30.04 in 3.0 mi West 2.3 mph - N/A   Clear
1:48 AM 50.0 °F - 50.0 °F 100% 30.04 in 2.5 mi NW 2.3 mph - N/A   Clear
1:58 AM 50.5 °F - 50.5 °F 100% 30.04 in 2.5 mi NNE 2.3 mph - N/A   Clear
2:03 AM 51.8 °F - 51.8 °F 100% 30.03 in 3.0 mi Variable 1.2 mph - N/A   Clear
2:08 AM 51.8 °F - 51.8 °F 100% 30.04 in 3.0 mi NW 3.5 mph - N/A   Clear
2:13 AM 51.8 °F - 51.8 °F 100% 30.04 in 2.5 mi WNW 4.6 mph - N/A   Clear
2:23 AM 51.8 °F - 51.8 °F 100% 30.04 in 1.8 mi NNE 2.3 mph - N/A   Clear
2:28 AM 51.8 °F - 51.8 °F 100% 30.03 in 2.0 mi North 2.3 mph - N/A   Clear
2:33 AM 51.8 °F - 51.8 °F 100% 30.04 in 3.0 mi NNW 2.3 mph - N/A   Clear
2:38 AM 51.8 °F - 51.8 °F 100% 30.04 in 2.5 mi NW 2.3 mph - N/A   Clear
2:48 AM 51.8 °F - 51.8 °F 100% 30.04 in 3.0 mi NNW 4.6 mph - N/A   Clear
2:53 AM 51.8 °F - 51.8 °F 100% 30.04 in 4.0 mi North 3.5 mph - N/A   Clear
2:58 AM 51.6 °F - 51.6 °F 100% 30.05 in 5.0 mi North 2.3 mph - N/A   Clear
3:58 AM 50.4 °F - 50.4 °F 100% 30.04 in 5.0 mi NE 4.6 mph - N/A   Clear
4:58 AM 50.5 °F - 50.5 °F 100% 30.05 in 5.0 mi WNW 3.5 mph - N/A   Clear
5:58 AM 48.4 °F - 48.4 °F 100% 30.08 in 5.0 mi WSW 4.6 mph - N/A   Clear
6:03 AM 48.2 °F - 48.2 °F 100% 30.07 in 2.5 mi WSW 4.6 mph - N/A   Clear
6:08 AM 46.4 °F 43.5 °F 46.4 °F 100% 30.08 in 2.5 mi West 5.8 mph - N/A   Clear
6:13 AM 46.4 °F 44.3 °F 46.4 °F 100% 30.08 in 4.0 mi WNW 4.6 mph - N/A   Clear
6:58 AM 51.4 °F - 51.4 °F 100% 30.10 in 7.0 mi NNE 4.6 mph - N/A   Clear
7:58 AM 56.3 °F - 54.9 °F 95% 30.13 in 10.0 mi ENE 2.3 mph - N/A   Mostly Cloudy
8:58 AM 60.6 °F - 51.1 °F 71% 30.13 in 10.0 mi East 4.6 mph - N/A   Mostly Cloudy
9:58 AM 65.7 °F - 47.8 °F 53% 30.12 in 10.0 mi NE 5.8 mph - N/A   Scattered Clouds
10:58 AM 71.8 °F - 32.7 °F 24% 30.11 in 10.0 mi East 3.5 mph - N/A   Partly Cloudy
11:58 AM 76.5 °F - 27.0 °F 16% 30.08 in 10.0 mi NE 4.6 mph - N/A   Partly Cloudy
12:58 PM 81.0 °F - 20.8 °F 11% 30.05 in 10.0 mi East 3.5 mph - N/A   Partly Cloudy
1:58 PM 75.6 °F - 39.9 °F 28% 30.04 in 10.0 mi SSW 12.7 mph - N/A   Partly Cloudy
2:58 PM 72.3 °F - 38.1 °F 29% 30.04 in 10.0 mi WSW 10.4 mph - N/A   Clear
3:58 PM 73.4 °F - 51.4 °F 46% 30.04 in 10.0 mi NW 9.2 mph - N/A   Clear
4:58 PM 65.1 °F - 60.3 °F 84% 30.06 in 10.0 mi West 10.4 mph - N/A   Clear
5:58 PM 62.1 °F - 56.8 °F 83% 30.08 in 10.0 mi WNW 5.8 mph - N/A   Clear
6:58 PM 60.1 °F - 56.1 °F 87% 30.09 in 10.0 mi Calm Calm - N/A   Clear
7:58 PM 56.8 °F - 56.3 °F 98% 30.08 in 10.0 mi North 2.3 mph - N/A   Clear
8:58 PM 55.6 °F - 55.4 °F 99% 30.08 in 10.0 mi Calm Calm - N/A   Clear
9:58 PM 52.9 °F - 52.9 °F 100% 30.09 in 10.0 mi Calm Calm - N/A   Clear
10:58 PM 52.2 °F - 52.2 °F 100% 30.08 in 10.0 mi Calm Calm - N/A   Clear
11:58 PM 52.0 °F - 52.0 °F 100% 30.08 in 10.0 mi Calm Calm - N/A   Clear